Weather History for KPOU - April, 2014

Change the Weather History Date:

Wednesday, April 23, 2014

  Actual Average Record
Temperature  
Mean Temperature 51 °F 52 °F  
Max Temperature 58 °F 64 °F 86 °F (2007)
Min Temperature 44 °F 39 °F 21 °F (1989)
Degree Days  
Heating Degree Days 14 14  
Month to date heating degree days 363 407  
Since 1 July heating degree days 6093 5852  
Cooling Degree Days 0 0  
Month to date cooling degree days 6 0  
Year to date cooling degree days 6 0  
Growing Degree Days 2 (Base 50)    
Moisture  
Dew Point 40 °F    
Average Humidity 70    
Maximum Humidity 89    
Minimum Humidity 42    
Precipitation  
Precipitation 0.18 in 0.12 in 0.87 in (2006)
Month to date precipitation 1.90 2.89  
Year to date precipitation 8.93 12.20  
Sea Level Pressure  
Sea Level Pressure 29.59 in    
Wind  
Wind Speed 8 mph (NNW)    
Max Wind Speed 24 mph    
Max Gust Speed 32 mph    
Visibility 9 miles    
Events Rain    
T = Trace of Precipitation, MM = Missing Value Source: NWS Daily Summary

Daily Weather History Graph

Daily Weather History Graph

Search for Another Location

Airport or City:

Trip Planner

Search our weather history database for the weather conditions in past years. The results will help you decide how hot, cold, wet, or windy it might be!

Date:

Astronomy

Apr. 23, 2014 Rise Set
Actual Time 6:03 AM EDT 7:44 PM EDT
Civil Twilight 5:34 AM EDT 8:14 PM EDT
Nautical Twilight 4:58 AM EDT 8:50 PM EDT
Astronomical Twilight 4:20 AM EDT 9:28 PM EDT
Moon 2:38 AM EDT (4/23) 1:45 PM EDT (4/23)
Length of Visible Light 14h 40m
Length of Day
13h 41m
Waning Crescent, 35% of the Moon is Illuminated
Apr 23
Waning Crescent
Apr 29
New
May 6
First Quarter
May 14
Full
May 21
Last Quarter

Hourly Weather History & Observations

Time (EDT) Temp. Dew Point Humidity Pressure Visibility Wind Dir Wind Speed Gust Speed Precip Events Conditions
12:53 AM 53.1 °F 50.0 °F 89% 29.48 in 8.0 mi NNE 3.5 mph - N/A   Overcast
1:53 AM 55.9 °F 51.1 °F 84% 29.48 in 8.0 mi NW 6.9 mph - 0.00 in Rain Light Rain
2:07 AM 55.9 °F 51.1 °F 84% 29.50 in 8.0 mi North 5.8 mph - 0.01 in Rain Light Rain
2:53 AM 53.1 °F 48.9 °F 86% 29.49 in 7.0 mi NNE 10.4 mph - 0.04 in Rain Light Rain
3:30 AM 52.0 °F 48.0 °F 86% 29.49 in 10.0 mi North 6.9 mph - 0.00 in   Overcast
3:53 AM 52.0 °F 48.0 °F 86% 29.49 in 10.0 mi NE 10.4 mph - 0.00 in   Overcast
4:21 AM 50.0 °F 46.0 °F 86% 29.50 in 10.0 mi NNE 9.2 mph - N/A   Overcast
4:53 AM 50.0 °F 45.0 °F 83% 29.50 in 10.0 mi NNW 10.4 mph - N/A   Overcast
5:37 AM 48.9 °F 44.1 °F 83% 29.53 in 5.0 mi North 6.9 mph - 0.04 in Rain Light Rain
5:53 AM 48.0 °F 44.1 °F 86% 29.53 in 4.0 mi North 5.8 mph - 0.07 in Rain Rain
6:53 AM 48.0 °F 45.0 °F 89% 29.54 in 7.0 mi Calm Calm - 0.01 in   Overcast
7:25 AM 48.0 °F 45.0 °F 89% 29.56 in 6.0 mi WNW 3.5 mph - N/A   Overcast
7:53 AM 48.9 °F 39.0 °F 69% 29.55 in 10.0 mi NW 11.5 mph - N/A   Overcast
8:53 AM 48.9 °F 37.9 °F 66% 29.56 in 10.0 mi WNW 9.2 mph - N/A   Overcast
9:53 AM 48.0 °F 39.0 °F 71% 29.57 in 10.0 mi NW 5.8 mph - 0.00 in Rain Light Rain
10:53 AM 46.9 °F 41.0 °F 80% 29.58 in 10.0 mi Calm Calm - 0.05 in   Overcast
11:53 AM 53.1 °F 39.9 °F 61% 29.57 in 10.0 mi NNW 18.4 mph 28.8 mph N/A   Overcast
1:53 PM 52.0 °F 41.0 °F 66% 29.60 in 10.0 mi North 9.2 mph - 0.01 in   Overcast
2:53 PM 57.0 °F 39.0 °F 51% 29.59 in 10.0 mi NW 9.2 mph 20.7 mph N/A   Overcast
4:53 PM 54.0 °F 34.0 °F 47% 29.64 in 10.0 mi NNW 16.1 mph 28.8 mph N/A   Scattered Clouds
5:53 PM 52.0 °F 33.1 °F 49% 29.67 in 10.0 mi NW 16.1 mph 28.8 mph N/A   Mostly Cloudy
6:53 PM 48.0 °F 32.0 °F 54% 29.70 in 10.0 mi NNW 21.9 mph 32.2 mph N/A   Overcast
7:53 PM 46.9 °F 28.9 °F 50% 29.73 in 10.0 mi NW 24.2 mph 29.9 mph N/A   Mostly Cloudy
8:53 PM 46.9 °F 30.0 °F 52% 29.76 in 10.0 mi WNW 13.8 mph 24.2 mph N/A   Overcast
9:53 PM 46.9 °F 30.0 °F 52% 29.78 in 10.0 mi WNW 10.4 mph - N/A   Overcast
10:53 PM 46.9 °F 27.0 °F 46% 29.79 in 10.0 mi NW 13.8 mph 19.6 mph N/A   Overcast
11:53 PM 46.9 °F 25.0 °F 42% 29.80 in 10.0 mi NW 8.1 mph - N/A   Overcast